Time,TemperatureF,DewpointF,PressureIn,WindDirection,WindDirectionDegrees,WindSpeedMPH,WindSpeedGustMPH,Humidity,HourlyPrecipIn,Conditions,Clouds,dailyrainin,SoftwareType,DateUTC
2013-02-20 00:01:00,23.0,8.0,-100.00,West,280,6.0,9.0,52,-99.99,,,-99.99,,2013-02-20 06:01:00,
2013-02-20 00:11:00,24.0,9.0,-100.00,West,265,9.0,12.0,52,-99.99,,,-99.99,,2013-02-20 06:11:00,
2013-02-20 00:21:00,24.0,9.0,-100.00,West,265,9.0,12.0,52,-99.99,,,-99.99,,2013-02-20 06:21:00,
2013-02-20 00:42:00,23.0,8.0,-100.00,WNW,295,4.0,6.0,51,-99.99,,,-99.99,,2013-02-20 06:42:00,
2013-02-20 00:52:00,23.0,8.0,-100.00,NW,305,9.0,16.0,51,-99.99,,,-99.99,,2013-02-20 06:52:00,
2013-02-20 01:01:00,23.0,8.0,-100.00,NW,305,9.0,16.0,51,-99.99,,,-99.99,,2013-02-20 07:01:00,
2013-02-20 01:11:00,23.0,8.0,-100.00,WNW,300,9.0,14.0,51,-99.99,,,-99.99,,2013-02-20 07:11:00,
2013-02-20 01:21:00,23.0,8.0,-100.00,West,275,4.0,8.0,51,-99.99,,,-99.99,,2013-02-20 07:21:00,
2013-02-20 01:31:00,23.0,8.0,-100.00,West,275,4.0,8.0,51,-99.99,,,-99.99,,2013-02-20 07:31:00,
2013-02-20 01:42:00,23.0,8.0,-100.00,West,275,4.0,8.0,51,-99.99,,,-99.99,,2013-02-20 07:42:00,
2013-02-20 01:52:00,23.0,7.0,-100.00,West,265,6.0,6.0,51,-99.99,,,-99.99,,2013-02-20 07:52:00,
2013-02-20 02:05:00,23.0,7.0,-100.00,West,265,6.0,6.0,51,-99.99,,,-99.99,,2013-02-20 08:05:00,
2013-02-20 02:11:00,22.0,7.0,-100.00,WNW,290,3.0,6.0,51,-99.99,,,-99.99,,2013-02-20 08:11:00,
2013-02-20 02:21:00,22.0,7.0,-100.00,NW,325,3.0,6.0,52,-99.99,,,-99.99,,2013-02-20 08:21:00,
2013-02-20 02:31:00,22.0,7.0,-100.00,NW,325,3.0,6.0,52,-99.99,,,-99.99,,2013-02-20 08:31:00,
2013-02-20 02:41:00,22.0,7.0,-100.00,NW,320,3.0,9.0,53,-99.99,,,-99.99,,2013-02-20 08:41:00,
2013-02-20 02:52:00,21.0,7.0,-100.00,NNW,335,3.0,6.0,54,-99.99,,,-99.99,,2013-02-20 08:52:00,
2013-02-20 03:01:00,21.0,7.0,-100.00,NNW,335,3.0,6.0,54,-99.99,,,-99.99,,2013-02-20 09:01:00,
2013-02-20 03:11:00,21.0,7.0,-100.00,NW,315,10.0,14.0,54,-99.99,,,-99.99,,2013-02-20 09:11:00,
2013-02-20 03:21:00,21.0,7.0,-100.00,NNW,335,2.0,3.0,53,-99.99,,,-99.99,,2013-02-20 09:21:00,
2013-02-20 03:31:00,21.0,7.0,-100.00,NNW,335,2.0,3.0,53,-99.99,,,-99.99,,2013-02-20 09:31:00,
2013-02-20 03:42:00,21.0,6.0,-100.00,NW,315,9.0,12.0,53,-99.99,,,-99.99,,2013-02-20 09:42:00,
2013-02-20 03:52:00,20.0,5.0,-100.00,NW,320,8.0,11.0,52,-99.99,,,-99.99,,2013-02-20 09:52:00,
2013-02-20 04:01:00,20.0,5.0,-100.00,NW,320,8.0,11.0,52,-99.99,,,-99.99,,2013-02-20 10:01:00,
2013-02-20 04:12:00,20.0,5.0,-100.00,NW,320,10.0,14.0,52,-99.99,,,-99.99,,2013-02-20 10:12:00,
2013-02-20 04:22:00,19.0,5.0,-100.00,NNW,335,12.0,18.0,52,-99.99,,,-99.99,,2013-02-20 10:22:00,
2013-02-20 04:32:00,19.0,5.0,-100.00,NNW,335,12.0,18.0,52,-99.99,,,-99.99,,2013-02-20 10:32:00,
2013-02-20 04:42:00,19.0,5.0,-100.00,NNW,330,10.0,16.0,53,-99.99,,,-99.99,,2013-02-20 10:42:00,
2013-02-20 04:52:00,19.0,5.0,-100.00,North,0,9.0,12.0,53,-99.99,,,-99.99,,2013-02-20 10:52:00,
2013-02-20 05:02:00,19.0,5.0,-100.00,North,0,9.0,12.0,53,-99.99,,,-99.99,,2013-02-20 11:02:00,
2013-02-20 05:11:00,19.0,5.0,-100.00,NNW,340,6.0,10.0,54,-99.99,,,-99.99,,2013-02-20 11:11:00,
2013-02-20 05:21:00,18.0,5.0,-100.00,NNW,340,12.0,16.0,56,-99.99,,,-99.99,,2013-02-20 11:21:00,
2013-02-20 05:32:00,18.0,5.0,-100.00,NNW,340,12.0,16.0,56,-99.99,,,-99.99,,2013-02-20 11:32:00,
2013-02-20 05:42:00,18.0,5.0,-100.00,NNW,345,6.0,16.0,56,-99.99,,,-99.99,,2013-02-20 11:42:00,
2013-02-20 05:52:00,18.0,5.0,-100.00,NNW,335,6.0,6.0,57,-99.99,,,-99.99,,2013-02-20 11:52:00,
2013-02-20 06:02:00,18.0,5.0,-100.00,NNW,335,6.0,6.0,57,-99.99,,,-99.99,,2013-02-20 12:02:00,
2013-02-20 06:12:00,17.0,5.0,-100.00,North,0,3.0,6.0,58,-99.99,,,-99.99,,2013-02-20 12:12:00,
2013-02-20 06:21:00,17.0,5.0,-100.00,NW,325,4.0,6.0,59,-99.99,,,-99.99,,2013-02-20 12:21:00,
2013-02-20 06:32:00,17.0,5.0,-100.00,NW,325,4.0,6.0,59,-99.99,,,-99.99,,2013-02-20 12:32:00,
2013-02-20 06:42:00,17.0,5.0,-100.00,NW,325,6.0,10.0,59,-99.99,,,-99.99,,2013-02-20 12:42:00,
2013-02-20 06:53:00,17.0,5.0,-100.00,WNW,300,4.0,6.0,60,-99.99,,,-99.99,,2013-02-20 12:53:00,
2013-02-20 07:01:00,17.0,5.0,-100.00,WNW,300,4.0,6.0,60,-99.99,,,-99.99,,2013-02-20 13:01:00,
2013-02-20 07:11:00,16.0,5.0,-100.00,NNW,345,3.0,9.0,61,-99.99,,,-99.99,,2013-02-20 13:11:00,
2013-02-20 07:22:00,17.0,6.0,-100.00,NW,325,6.0,10.0,63,-99.99,,,-99.99,,2013-02-20 13:22:00,
2013-02-20 07:32:00,17.0,6.0,-100.00,NW,325,6.0,10.0,63,-99.99,,,-99.99,,2013-02-20 13:32:00,
2013-02-20 07:42:00,17.0,6.0,-100.00,NW,325,6.0,10.0,63,-99.99,,,-99.99,,2013-02-20 13:42:00,
2013-02-20 08:11:00,17.0,6.0,-100.00,NNW,345,4.0,9.0,63,-99.99,,,-99.99,,2013-02-20 14:11:00,
2013-02-20 08:21:00,17.0,7.0,-100.00,NNW,340,6.0,9.0,63,-99.99,,,-99.99,,2013-02-20 14:21:00,
2013-02-20 08:32:00,17.0,7.0,-100.00,NNW,340,6.0,9.0,63,-99.99,,,-99.99,,2013-02-20 14:32:00,
2013-02-20 08:42:00,18.0,7.0,-100.00,North,0,9.0,10.0,62,-99.99,,,-99.99,,2013-02-20 14:42:00,
2013-02-20 08:52:00,19.0,8.0,-100.00,North,355,3.0,6.0,61,-99.99,,,-99.99,,2013-02-20 14:52:00,
2013-02-20 09:01:00,19.0,8.0,-100.00,North,355,3.0,6.0,61,-99.99,,,-99.99,,2013-02-20 15:01:00,
2013-02-20 09:11:00,19.0,7.0,-100.00,NW,325,4.0,9.0,59,-99.99,,,-99.99,,2013-02-20 15:11:00,
2013-02-20 09:22:00,19.0,7.0,-100.00,NNW,335,4.0,6.0,59,-99.99,,,-99.99,,2013-02-20 15:22:00,
2013-02-20 09:32:00,19.0,7.0,-100.00,NNW,335,4.0,6.0,59,-99.99,,,-99.99,,2013-02-20 15:32:00,
2013-02-20 09:42:00,19.0,6.0,-100.00,WNW,290,6.0,6.0,57,-99.99,,,-99.99,,2013-02-20 15:42:00,
2013-02-20 09:52:00,19.0,7.0,-100.00,NW,310,11.0,14.0,57,-99.99,,,-99.99,,2013-02-20 15:52:00,
2013-02-20 10:01:00,19.0,7.0,-100.00,NW,310,11.0,14.0,57,-99.99,,,-99.99,,2013-02-20 16:01:00,
2013-02-20 10:12:00,19.0,7.0,-100.00,North,0,4.0,6.0,57,-99.99,,,-99.99,,2013-02-20 16:12:00,
2013-02-20 10:21:00,19.0,6.0,-100.00,NNW,330,6.0,8.0,55,-99.99,,,-99.99,,2013-02-20 16:21:00,
2013-02-20 10:32:00,19.0,6.0,-100.00,NNW,330,6.0,8.0,55,-99.99,,,-99.99,,2013-02-20 16:32:00,
2013-02-20 10:42:00,20.0,6.0,-100.00,NW,305,8.0,10.0,53,-99.99,,,-99.99,,2013-02-20 16:42:00,
2013-02-20 10:52:00,21.0,6.0,-100.00,North,350,6.0,9.0,52,-99.99,,,-99.99,,2013-02-20 16:52:00,
2013-02-20 11:01:00,21.0,6.0,-100.00,North,350,6.0,9.0,52,-99.99,,,-99.99,,2013-02-20 17:01:00,
2013-02-20 11:11:00,21.0,6.0,-100.00,NW,320,6.0,9.0,52,-99.99,,,-99.99,,2013-02-20 17:11:00,
2013-02-20 11:21:00,22.0,6.0,-100.00,NNW,335,1.0,2.0,50,-99.99,,,-99.99,,2013-02-20 17:21:00,
2013-02-20 11:32:00,22.0,6.0,-100.00,NNW,335,1.0,2.0,50,-99.99,,,-99.99,,2013-02-20 17:32:00,
2013-02-20 11:42:00,22.0,6.0,-100.00,NNW,345,6.0,6.0,49,-99.99,,,-99.99,,2013-02-20 17:42:00,
2013-02-20 11:52:00,22.0,5.0,-100.00,NW,305,9.0,10.0,48,-99.99,,,-99.99,,2013-02-20 17:52:00,
2013-02-20 12:02:00,22.0,5.0,-100.00,NW,305,9.0,10.0,48,-99.99,,,-99.99,,2013-02-20 18:02:00,
2013-02-20 12:11:00,22.0,6.0,-100.00,NE,35,0.0,1.0,48,-99.99,,,-99.99,,2013-02-20 18:11:00,
2013-02-20 12:21:00,23.0,6.0,-100.00,North,5,1.0,2.0,48,-99.99,,,-99.99,,2013-02-20 18:21:00,
2013-02-20 12:32:00,23.0,6.0,-100.00,North,5,1.0,2.0,48,-99.99,,,-99.99,,2013-02-20 18:32:00,
2013-02-20 12:42:00,23.0,7.0,-100.00,NNW,345,6.0,9.0,48,-99.99,,,-99.99,,2013-02-20 18:42:00,
2013-02-20 12:52:00,23.0,6.0,-100.00,NW,310,9.0,10.0,48,-99.99,,,-99.99,,2013-02-20 18:52:00,
2013-02-20 13:01:00,23.0,6.0,-100.00,NW,310,9.0,10.0,48,-99.99,,,-99.99,,2013-02-20 19:01:00,
2013-02-20 13:11:00,23.0,7.0,-100.00,NNW,330,6.0,9.0,48,-99.99,,,-99.99,,2013-02-20 19:11:00,
2013-02-20 13:21:00,24.0,7.0,-100.00,NNW,340,2.0,4.0,48,-99.99,,,-99.99,,2013-02-20 19:21:00,
2013-02-20 13:31:00,24.0,7.0,-100.00,North,0,3.0,4.0,48,-99.99,,,-99.99,,2013-02-20 19:31:00,
2013-02-20 13:41:00,24.0,7.0,-100.00,North,0,3.0,4.0,48,-99.99,,,-99.99,,2013-02-20 19:41:00,
2013-02-20 13:52:00,24.0,8.0,-100.00,NW,325,6.0,10.0,48,-99.99,,,-99.99,,2013-02-20 19:52:00,
2013-02-20 14:01:00,24.0,8.0,-100.00,NW,325,6.0,10.0,48,-99.99,,,-99.99,,2013-02-20 20:01:00,
2013-02-20 14:11:00,25.0,8.0,-100.00,North,5,6.0,10.0,48,-99.99,,,-99.99,,2013-02-20 20:11:00,
2013-02-20 14:21:00,25.0,8.0,-100.00,NNE,20,3.0,4.0,47,-99.99,,,-99.99,,2013-02-20 20:21:00,
2013-02-20 14:31:00,25.0,8.0,-100.00,NNE,20,3.0,4.0,47,-99.99,,,-99.99,,2013-02-20 20:31:00,
2013-02-20 14:41:00,25.0,8.0,-100.00,NNE,25,2.0,6.0,46,-99.99,,,-99.99,,2013-02-20 20:41:00,
2013-02-20 14:52:00,26.0,8.0,-100.00,NNE,15,2.0,3.0,46,-99.99,,,-99.99,,2013-02-20 20:52:00,
2013-02-20 15:00:00,26.0,7.0,-100.00,North,0,3.0,3.0,45,-99.99,,,-99.99,,2013-02-20 21:00:00,
2013-02-20 15:01:00,26.0,8.0,-100.00,NNE,15,2.0,3.0,46,-99.99,,,-99.99,,2013-02-20 21:01:00,
2013-02-20 15:11:00,26.0,7.0,-100.00,NNE,15,2.0,3.0,45,-99.99,,,-99.99,,2013-02-20 21:11:00,
2013-02-20 15:21:00,26.0,7.0,-100.00,NW,305,3.0,6.0,45,-99.99,,,-99.99,,2013-02-20 21:21:00,
2013-02-20 15:30:00,26.0,8.0,-100.00,NNW,330,3.0,6.0,46,-99.99,,,-99.99,,2013-02-20 21:30:00,
2013-02-20 15:31:00,26.0,7.0,-100.00,NW,305,3.0,6.0,45,-99.99,,,-99.99,,2013-02-20 21:31:00,
2013-02-20 15:42:00,26.0,7.0,-100.00,North,0,3.0,3.0,45,-99.99,,,-99.99,,2013-02-20 21:42:00,
2013-02-20 15:52:00,26.0,7.0,-100.00,North,0,3.0,3.0,45,-99.99,,,-99.99,,2013-02-20 21:52:00,
2013-02-20 16:11:00,26.0,8.0,-100.00,NNW,330,3.0,6.0,46,-99.99,,,-99.99,,2013-02-20 22:11:00,
2013-02-20 16:21:00,26.0,8.0,-100.00,NNW,330,3.0,6.0,46,-99.99,,,-99.99,,2013-02-20 22:21:00,
2013-02-20 16:43:00,25.0,8.0,-100.00,North,350,6.0,9.0,46,-99.99,,,-99.99,,2013-02-20 22:43:00,
2013-02-20 16:52:00,25.0,8.0,-100.00,North,10,4.0,9.0,47,-99.99,,,-99.99,,2013-02-20 22:52:00,
2013-02-20 17:01:00,25.0,8.0,-100.00,North,10,4.0,9.0,47,-99.99,,,-99.99,,2013-02-20 23:01:00,
2013-02-20 17:12:00,25.0,8.0,-100.00,North,10,8.0,10.0,48,-99.99,,,-99.99,,2013-02-20 23:12:00,
2013-02-20 17:22:00,25.0,8.0,-100.00,NNE,15,6.0,8.0,48,-99.99,,,-99.99,,2013-02-20 23:22:00,
2013-02-20 17:32:00,25.0,8.0,-100.00,NNE,15,6.0,8.0,48,-99.99,,,-99.99,,2013-02-20 23:32:00,
2013-02-20 17:42:00,25.0,9.0,-100.00,North,0,3.0,6.0,49,-99.99,,,-99.99,,2013-02-20 23:42:00,
2013-02-20 17:52:00,25.0,8.0,-100.00,NNE,15,3.0,4.0,49,-99.99,,,-99.99,,2013-02-20 23:52:00,
2013-02-20 18:03:00,25.0,8.0,-100.00,NNE,15,3.0,4.0,49,-99.99,,,-99.99,,2013-02-21 00:03:00,
2013-02-20 18:11:00,25.0,9.0,-100.00,NNE,20,6.0,9.0,50,-99.99,,,-99.99,,2013-02-21 00:11:00,
2013-02-20 18:21:00,25.0,9.0,-100.00,North,0,3.0,6.0,51,-99.99,,,-99.99,,2013-02-21 00:21:00,
2013-02-20 18:32:00,24.0,9.0,-100.00,NNE,15,9.0,11.0,52,-99.99,,,-99.99,,2013-02-21 00:32:00,
2013-02-20 18:42:00,24.0,9.0,-100.00,NNE,15,9.0,11.0,52,-99.99,,,-99.99,,2013-02-21 00:42:00,
2013-02-20 18:52:00,24.0,9.0,-100.00,NE,35,8.0,11.0,52,-99.99,,,-99.99,,2013-02-21 00:52:00,
2013-02-20 19:01:00,24.0,9.0,-100.00,NE,35,8.0,11.0,52,-99.99,,,-99.99,,2013-02-21 01:01:00,
2013-02-20 19:11:00,24.0,9.0,-100.00,NNE,20,6.0,10.0,52,-99.99,,,-99.99,,2013-02-21 01:11:00,
2013-02-20 19:21:00,24.0,9.0,-100.00,NNE,30,6.0,9.0,53,-99.99,,,-99.99,,2013-02-21 01:21:00,
2013-02-20 19:32:00,24.0,9.0,-100.00,NNE,30,6.0,9.0,53,-99.99,,,-99.99,,2013-02-21 01:32:00,
2013-02-20 19:42:00,23.0,9.0,-100.00,NNE,25,6.0,10.0,54,-99.99,,,-99.99,,2013-02-21 01:42:00,
2013-02-20 19:52:00,23.0,9.0,-100.00,NE,35,6.0,9.0,54,-99.99,,,-99.99,,2013-02-21 01:52:00,
2013-02-20 20:01:00,23.0,9.0,-100.00,NE,35,6.0,9.0,54,-99.99,,,-99.99,,2013-02-21 02:01:00,
2013-02-20 20:11:00,23.0,9.0,-100.00,NE,45,3.0,6.0,56,-99.99,,,-99.99,,2013-02-21 02:11:00,
2013-02-20 20:21:00,23.0,10.0,-100.00,NE,35,3.0,3.0,57,-99.99,,,-99.99,,2013-02-21 02:21:00,
2013-02-20 20:32:00,23.0,10.0,-100.00,NE,35,3.0,3.0,57,-99.99,,,-99.99,,2013-02-21 02:32:00,
2013-02-20 20:42:00,23.0,10.0,-100.00,NE,35,3.0,3.0,57,-99.99,,,-99.99,,2013-02-21 02:42:00,
2013-02-20 21:02:00,23.0,10.0,-100.00,ENE,70,1.0,2.0,58,-99.99,,,-99.99,,2013-02-21 03:02:00,
2013-02-20 21:12:00,23.0,11.0,-100.00,NE,40,1.0,2.0,59,-99.99,,,-99.99,,2013-02-21 03:12:00,
2013-02-20 21:21:00,23.0,11.0,-100.00,East,90,0.0,1.0,60,-99.99,,,-99.99,,2013-02-21 03:21:00,
2013-02-20 21:32:00,23.0,11.0,-100.00,East,90,0.0,1.0,60,-99.99,,,-99.99,,2013-02-21 03:32:00,
2013-02-20 21:42:00,23.0,11.0,-100.00,East,80,0.0,1.0,61,-99.99,,,-99.99,,2013-02-21 03:42:00,
2013-02-20 21:52:00,24.0,13.0,-100.00,SSW,195,0.0,0.0,62,-99.99,,,-99.99,,2013-02-21 03:52:00,
2013-02-20 22:01:00,24.0,13.0,-100.00,SSW,195,0.0,0.0,62,-99.99,,,-99.99,,2013-02-21 04:01:00,
2013-02-20 22:11:00,24.0,13.0,-100.00,NW,310,0.0,0.0,62,-99.99,,,-99.99,,2013-02-21 04:11:00,
2013-02-20 22:22:00,24.0,12.0,-100.00,NNE,25,2.0,3.0,62,-99.99,,,-99.99,,2013-02-21 04:22:00,
2013-02-20 22:32:00,24.0,12.0,-100.00,NNE,25,2.0,3.0,62,-99.99,,,-99.99,,2013-02-21 04:32:00,
2013-02-20 22:42:00,24.0,13.0,-100.00,North,5,0.0,2.0,62,-99.99,,,-99.99,,2013-02-21 04:42:00,
2013-02-20 22:52:00,23.0,12.0,-100.00,NE,35,1.0,1.0,62,-99.99,,,-99.99,,2013-02-21 04:52:00,
2013-02-20 23:02:00,23.0,12.0,-100.00,NE,35,1.0,1.0,62,-99.99,,,-99.99,,2013-02-21 05:02:00,
2013-02-20 23:12:00,23.0,12.0,-100.00,ENE,65,1.0,1.0,63,-99.99,,,-99.99,,2013-02-21 05:12:00,
2013-02-20 23:22:00,23.0,12.0,-100.00,NE,40,0.0,0.0,64,-99.99,,,-99.99,,2013-02-21 05:22:00,
2013-02-20 23:34:00,22.0,12.0,-100.00,West,260,0.0,0.0,65,-99.99,,,-99.99,,2013-02-21 05:34:00,
2013-02-20 23:44:00,22.0,12.0,-100.00,West,260,0.0,0.0,65,-99.99,,,-99.99,,2013-02-21 05:44:00,